Погода в Шаки

Погода в Шаки : погода сейчас, прогноз погоды и архив. Всё, что Вы хотите узнать о погоде в Шаки!

Поиск расширенной информации на нашем сайте:

Другие новости

Новости СМИ2

Главная страница сайта

Новости сайта

03.07.2017

Напоминаем, что на нашем специализированном сайте Метеоцентр.Азия вы можете получить высокодетализированные автоматические прогнозы погоды по пунктам России, СНГ и мира в авиационном формате (включающие направление и скорость ветра, видимость, явления погоды, количество и форму облачности, нижнюю и верхнюю границу облачности).

Рекомендуем: удобные сауны города екатеринбурга

Погода в Шаки - сегодня

Время (UTC), дата Ветер
(°,м/с) 
Видим.   Явления Облачность Т
(°С)
Тd
(°С)
f(%) Тe
(°С)
Pmin
(гПа)
dP
(гПа)
Po
(мм)
O2
(г/м3)
Тmin Tmax R s Состояние
почвы
03 19.05.18 040 (СВ) 20000 м    ясно 
+15.3 +8.6 64 +17  1018.9  0.3  709  269           
09 19.05.18 280 (З) 20000 м    ясно 
+25.1 +10.6 40 +28  1016.6  -0.1  709  260           
12 19.05.18 180 (Ю) 20000 м    4/0 верхняя 
[Ci fib]
+26.6 +10.4 36 +29  1014.9  -1.3  708  258           
15 19.05.18 230 (ЮЗ) 20000 м    5/0 верхняя 
[Ci fib]
+24.7 +9.5 38 +26  1015.3  708  260           
21 19.05.18 120 (ЮВ) 20000 м    ясно 
+18.7 +10.3 58 +23  1017.5  -0.1  709  265           
00 20.05.18 030 (СВ) 20000 м    ясно 
+17.2 +9.4 60 +20  1017.7  -0.2  708  267           
03 20.05.18 330 (СЗ) 20000 м    5/0 средняя 
[Ac und]
+18.2 +9.5 57 +22  1017.4  708  266           
09 20.05.18 170 (Ю) 20000 м    8/0 средняя, верхняя 
[Ac trans|Cs]
+23.5 +8.8 39 +24  1016.2  709  261           
12 20.05.18 240 (ЮЗ) 20000 м    8/0 средняя, верхняя 
[Ac trans|Cs]
+24.7 +11.4 43 +29  1014.9  -0.8  708  259           
15 20.05.18 320 (СЗ) 20000 м    8/0 средняя, верхняя 
[Ac trans|Cs]
+22.1 +10.6 48 +25  1014.4  -1.2  707  262           
21 20.05.18 030 (СВ) 20000 м    3/0 средняя 
[Ac und]
+18.1 +12.9 72 +27  1016.6  0.3  708  265           
00 21.05.18 360 (С) 10 км    9/9 600 м 
[Sc]
+18.8 +14.9 78 +30  1015  -1.3  707  263           
03 21.05.18 060 (СВ) 10 км    9/9 600 м 
[Sc]
+18.3 +11.5 65 +24  1015.6  0.4  707  265           
06 21.05.18 140 (ЮВ) 10 км    8/8 600 м 
[Sc]
+21.6 +9 44 +23  1014.3  -0.5  707  262  +17.9         
09 21.05.18 260 (З) 20000 м    6/0 средняя 
[Cu med, cong|Ac und]
+24.7 +7.3 33 +25  1014.5  -0.2  708  260           
12 21.05.18 160 (Ю) 20000 м    3/0 
[Cu med, cong]
+26.3 +6.7 29 +26  1013.2  -0.9  707  259           
15 21.05.18 270 (З) 20000 м    5/0 средняя 
[Cu med, cong|Ac und]
+24.9 +9.8 38 +27  1013.5  707  259           
21 21.05.18 060 (СВ) 20000 м    3/0 верхняя 
[Ci fib]
+19.4 +8 48 +20  1016  -0.4  708  265           
00 22.05.18 040 (СВ) 20000 м    ясно 
+19.2 +7.4 46 +21  1016.5  0.4  708  265           
03 22.05.18 060 (СВ) 10 км    8/5 600 м средняя 
[Sc|Ac und]
+19.1 +8.8 51 +21  1017.9  1.4  709  265           
06 22.05.18 220 (ЮЗ) 20000 м    6/0 кучево-дожд., средняя 
[Cb calv|Ac und]
+24 +7.1 34 +24  1017.7  0.9  710  262  +18.7         
09 22.05.18 230 (ЮЗ) 20000 м    5/0 средняя, верхняя 
[Ac und|Ci fib]
+27.4 +5 24 +27  1017.7  0.7  710  259           
12 22.05.18 200 (Ю) 20000 м    5/0 средняя, верхняя 
[Ac und|Ci fib]
+28.1 +7.6 27 +28  1016.6  -0.9  710  258           
15 22.05.18 110 (В) 20000 м    5/0 средняя 
[Cu med, cong|Ac und]
+26 +4.6 25 +26  1017.1  0.1  710  260           
21 22.05.18 020 (С) 20000 м    ясно 
+19.7 +5.8 40 +21  1019.2  710  266           
Время (UTC), дата Ветер
(°,м/с) 
Видим.   Явления Облачность Т
(°С)
Тd
(°С)
f(%) Тe
(°С)
Pmin
(гПа)
dP
(гПа)
Po
(мм)
O2
(г/м3)
Тmin Tmax R s Состояние
почвы

Для получения пояснительной информации подведите курсор к названию столбца.

ПОГОДА в Шаки - архив

Всё, что Вы хотите узнать о погоде в Шаки - удобно и подробно!

Выберите нужную дату (начиная с 1 января 2015* года) и нажмите кнопку "Найти".
Будут отображены архивные сводки погоды по пункту Шаки, начиная с указанной даты.


Отображать данные в формате CSV (для использования в таблицах Excel)


Внимание! Наш архив погоды предназначен исключительно для личного некоммерческого использования в познавательных целях. Если Вам необходимы официальные справки о состоянии погоды (для производственных, юридических, коммерческих и т.п. целей), обращайтесь в органы Росгидромета.

*Примечание: данная дата относится к архиву по метеостанциям СССР (Россия, СНГ, Балтия).
Архив по метеостанциям Зарубежной Европы и Азии (кроме Китая) хранится 10 дней, по другим регионам земного шара (Китай, Африка, Америка, Австралия, Океания) - 1 день.

Шаки - район местоположения метеостанции


Название, широта, долгота, высота метеостанции:
Шаки 41.2°ш. 47.2°д. 641 м над ур. моря [Азербайджан]

Дополнительная информация

В oтличие oт бoльшинства пoгoдных сайтoв мы публикуем пoдрoбную метеoинфoрмацию в детальнoм прoфессиoнальнoм фoрмате.

Характеристики температуры и влажнoсти вoздуха измеряются на высoте 2 м в тени вдали oт зданий и деревьев.
Скoрoсть ветра измеряется на высoте 10 м (на урoвне рoста челoвека скoрoсть ветра ниже в 1.5-2 раза). Если метеoстанция нахoдится в гoрoде или в лесу, тo скoрoсть ветра занижена на 2-4 м/с пo сравнению с oткрытым местoм. Скoрoсть ветра над акватoриями крупных рек и oзёр, а также на вершинах хoлмoв на 2-5 м/с выше, чем в oбычных услoвиях.
Атмoсфернoе давление в разных тoчках местнoсти мoжет значительнo oтличаться oт давления на метеoстанции, в зависимoсти oт услoвий рельефа (при пoдъёме на 10 м давление пoнижается примернo на 1 мм рт.ст.).